SL-12 R/B(2), 21019

Orbit data source: Space-Track

SL-12 R/B(2), 21019 is space debris in GEO originally from a launch on Thu, 20 Dec 1990 UTC launched from the Tyuratam Missile And Space Complex (TTMTR). Debris objects in space refer to the collection of defunct objects orbiting the Earth. Examples of debris include non-operational satellites, rocket bodies, and fragments generated from explosions, collisions, or faulty payload assembly.

Not visible in the next 10 days
Identifier
21019, 1990-112D
Orbit
GEO
Last TLE update
13 hours ago
Origin
Manufacturer
NPO Energiya
Mission
Spacecraft
Bus & Motor
BLOK DM, Unknown motor
Mass
2,440 kg wet, 2,440 kg dry
Launch date (UTC)
1990-12-20 (35 years ago)
Launch vehicle
Unknown
Launch site
Tyuratam Missile And Space Complex (TTMTR)
Object type
Payload
Rocket body
Debris
Shape & HBR
Cyl, 6.27 m
Radar Cross Section
23.597 m², Large (>1 m²)

Expand to show TLE details & history

TLE from 13 hours ago
0 SL-12 R/B(2)
1 21019U 90112D   25188.80276469 -.00000359  00000-0  00000-0 0  9990
2 21019  13.2030 340.4943 0027411 174.2779 186.6965  1.00030122116494
Epoch: 2025-07-07T19:15Z
TLE epoch observation values (Epoch: 2025-07-07T19:15:58.869Z)
Latitude
0.20809°
Longitude
126.39294°
Altitude
35,968.682 km
Speed
3.064 km/s
True Right ascension
22h 45m 34s
True Declination
0° 12' 28"
Sunlit
Object was in daylight at epoch
Visualization orbit readout
Latitude
-4.52569°
Longitude
-34.81617°
Altitude
35,751.068 km
Speed
3.08 km/s
Apparent Right ascension
11h 41m 30s
Apparent Declination
-9° 16' 34"
Sunlit
Object is in daylight
Visualization observer readout
Local Sidereal Time
20:37:46
Azimuth
294.07° NW
Elevation
-39.04°
Doppler factor
1
Orbital elements
Apogee altitude
35,971.232 km
Perigee altitude
35,739.699 km
Semi-major axis
42,233.602 km
Eccentricity
0.00274
Inclination
13.203°
RAAN
340.4943°
Arg. of periapsis
174.2779°
True anomaly
Unknown
Mean anomaly
186.6965°
Eccentric anomaly
Unknown
Mean motion
0.25007 °/min
Orbital period
1,439.62 mins
BSTAR
0
Loading historical data...
21019 neighbors
Loading maneuver chart data...
Loading SW <> Apogee altitude chart data...
Loading historical data...
Loading historical data...
Loading historical data...
Loading historical data...
Loading historical data...
Loading historical data...
Loading historical data...

SL-12 R/B(2) Visibility

Observer location: undefined°, undefined°

SL-12 R/B(2) is likely not visible in the next few days
Span
Click to sort rows by Start time (UTC) header in descending order
Start Az.
Max El. time (UTC)
Max El. Az.
Max El.
End time (UTC)
End Az.
|